SQ7RAF-15 Weather Reports


time (UTC)temp
C
wind
direction
speed
KPH
gust
KPH
rain 1hr
cm
rain 24hr
cm
rain mn
cm
humidity
%
barometer
mb
20260503055033 15 194 4.8 12.9 0.00 0.00 0.00 55 1018.2
20260503054546 15 194 3.2 8.0 0.00 0.00 0.00 56 1018.1
20260503054025 15 144 3.2 9.7 0.00 0.00 0.00 57 1018.2
20260503053539 15 101 3.2 9.7 0.00 0.00 0.00 59 1018.2
20260503053017 14 105 3.2 8.0 0.00 0.00 0.00 60 1018.3
20260503052530 13 79 3.2 8.0 0.00 0.00 0.00 61 1018.3
20260503052041 13 113 3.2 9.7 0.00 0.00 0.00 62 1018.3
20260503051523 13 111 3.2 4.8 0.00 0.00 0.00 63 1018.3
20260503051033 12 142 3.2 4.8 0.00 0.00 0.00 64 1018.3
20260503050545 12 93 3.2 9.7 0.00 0.00 0.00 65 1018.4
20260503050041 12 120 4.8 9.7 0.00 0.00 0.00 66 1018.4
20260503045521 12 126 3.2 4.8 0.00 0.00 0.00 66 1018.4
20260503045033 12 49 1.6 4.8 0.00 0.00 0.00 67 1018.4
20260503044545 11 65 3.2 4.8 0.00 0.00 0.00 69 1018.5
20260503044025 10 35 1.6 3.2 0.00 0.00 0.00 73 1018.5
20260503043537 9 343 1.6 3.2 0.00 0.00 0.00 77 1018.5
20260503043017 8 336 1.6 3.2 0.00 0.00 0.00 79 1018.5
20260503042531 7 79 1.6 3.2 0.00 0.00 0.00 82 1018.6
20260503042041 7 340 0.0 1.6 0.00 0.00 0.00 84 1018.6
20260503041522 6 344 0.0 1.6 0.00 0.00 0.00 87 1018.6
20260503041033 6 331 0.0 1.6 0.00 0.00 0.00 88 1018.6
20260503040546 5 329 0.0 1.6 0.00 0.00 0.00 89 1018.6
20260503040026 5 336 0.0 1.6 0.00 0.00 0.00 89 1018.6
20260503035537 5 340 0.0 1.6 0.00 0.00 0.00 89 1018.7
20260503035017 5 334 0.0 1.6 0.00 0.00 0.00 89 1018.6
20260503034529 5 0.0 0.0 0.00 0.00 0.00 89 1018.6
20260503034033 5 346 0.0 1.6 0.00 0.00 0.00 89 1018.6
20260503033537 5 322 0.0 1.6 0.00 0.00 0.00 88 1018.6
20260503033018 5 0.0 0.0 0.00 0.00 0.00 88 1018.7
20260503032530 5 335 0.0 1.6 0.00 0.00 0.00 89 1018.5
20260503032041 5 338 0.0 1.6 0.00 0.00 0.00 89 1018.7
20260503031522 5 0.0 0.0 0.00 0.00 0.00 89 1018.6
20260503031033 5 0.0 0.0 0.00 0.00 0.00 89 1018.6
20260503030545 5 330 0.0 1.6 0.00 0.00 0.00 89 1018.7
20260503030025 5 0.0 0.0 0.00 0.00 0.00 88 1018.7
20260503025537 5 0.0 0.0 0.00 0.00 0.00 88 1018.7
20260503025017 5 0.0 0.0 0.00 0.00 0.00 88 1018.7
20260503024529 5 320 0.0 1.6 0.00 0.00 0.00 88 1018.7
20260503024041 5 0.0 0.0 0.00 0.00 0.00 88 1018.7
20260503023521 5 318 0.0 1.6 0.00 0.00 0.00 88 1018.7
20260503023033 5 325 0.0 1.6 0.00 0.00 0.00 88 1018.7
20260503022545 5 0.0 0.0 0.00 0.00 0.00 88 1018.7
20260503022026 5 0.0 0.0 0.00 0.00 0.00 87 1018.7
20260503021538 5 0.0 0.0 0.00 0.00 0.00 87 1018.7
20260503021018 5 315 0.0 1.6 0.00 0.00 0.00 87 1018.7
20260503020529 6 0.0 0.0 0.00 0.00 0.00 86 1018.8
20260503020041 6 0.0 0.0 0.00 0.00 0.00 86 1018.9
20260503015521 6 0.0 0.0 0.00 0.00 0.00 86 1018.8
20260503015033 6 316 0.0 1.6 0.00 0.00 0.00 85 1018.9
20260503014545 6 0.0 0.0 0.00 0.00 0.00 84 1018.8
20260503014025 7 330 0.0 1.6 0.00 0.00 0.00 83 1018.8
20260503013537 7 333 0.0 1.6 0.00 0.00 0.00 82 1018.7
20260503013017 7 327 0.0 1.6 0.00 0.00 0.00 81 1018.8
20260503012529 8 323 0.0 1.6 0.00 0.00 0.00 80 1018.8
20260503012041 8 311 0.0 1.6 0.00 0.00 0.00 79 1018.7
20260503011521 8 347 0.0 1.6 0.00 0.00 0.00 79 1018.7
20260503011033 8 318 0.0 3.2 0.00 0.00 0.00 78 1018.8
20260503010545 9 344 0.0 1.6 0.00 0.00 0.00 77 1018.9
20260503010025 10 315 0.0 1.6 0.00 0.00 0.00 75 1018.8
20260503005537 10 297 1.6 3.2 0.00 0.00 0.00 74 1018.8
20260503005017 10 321 0.0 1.6 0.00 0.00 0.00 73 1018.9
20260503004529 10 314 1.6 3.2 0.00 0.00 0.00 72 1018.9
20260503004042 10 312 1.6 1.6 0.00 0.00 0.00 72 1018.8
20260503003521 11 316 1.6 1.6 0.00 0.00 0.00 71 1018.8
20260503003034 11 307 1.6 1.6 0.00 0.00 0.00 70 1018.9
20260503002545 11 304 0.0 1.6 0.00 0.00 0.00 70 1018.8
20260503002026 11 266 1.6 3.2 0.00 0.00 0.00 69 1018.8
20260503001537 11 279 1.6 4.8 0.00 0.00 0.00 69 1018.8
20260503001018 11 251 1.6 9.7 0.00 0.00 0.00 69 1018.8
20260503000529 11 293 1.6 3.2 0.00 0.00 0.00 69 1018.8
20260503000041 11 351 1.6 3.2 0.00 0.00 0.00 68 1018.8
20260502235521 11 276 1.6 3.2 0.00 0.00 0.00 68 1019.0
20260502235033 11 257 1.6 4.8 0.00 0.00 0.00 69 1018.9
20260502234545 11 285 1.6 4.8 0.00 0.00 0.00 69 1019.0
20260502234025 11 291 1.6 3.2 0.00 0.00 0.00 69 1018.9
20260502233537 11 324 0.0 1.6 0.00 0.00 0.00 69 1019.0
20260502233017 11 318 0.0 1.6 0.00 0.00 0.00 69 1018.8
20260502232530 11 290 1.6 3.2 0.00 0.00 0.00 68 1019.0
20260502232041 11 324 0.0 1.6 0.00 0.00 0.00 68 1019.0
20260502231522 12 305 0.0 1.6 0.00 0.00 0.00 67 1019.0
20260502231033 12 312 0.0 1.6 0.00 0.00 0.00 67 1019.0
20260502230545 12 350 1.6 3.2 0.00 0.00 0.00 66 1019.0
20260502230025 12 315 1.6 1.6 0.00 0.00 0.00 66 1019.0
20260502225537 12 279 1.6 4.8 0.00 0.00 0.00 65 1019.1
20260502225017 12 281 1.6 3.2 0.00 0.00 0.00 65 1019.1
20260502224529 13 299 1.6 3.2 0.00 0.00 0.00 63 1019.2
20260502224041 13 255 1.6 4.8 0.00 0.00 0.00 63 1019.2
20260502223521 12 240 1.6 4.8 0.00 0.00 0.00 64 1019.1
20260502223033 12 323 0.0 1.6 0.00 0.00 0.00 65 1019.1
20260502222545 12 279 1.6 3.2 0.00 0.00 0.00 65 1019.1
20260502222025 12 242 1.6 3.2 0.00 0.00 0.00 66 1019.1
20260502221537 12 326 0.0 1.6 0.00 0.00 0.00 66 1019.3
20260502221017 12 314 1.6 1.6 0.00 0.00 0.00 66 1019.3
20260502220529 12 298 1.6 3.2 0.00 0.00 0.00 66 1019.4
20260502220041 12 291 1.6 3.2 0.00 0.00 0.00 66 1019.3
20260502215521 12 307 0.0 1.6 0.00 0.00 0.00 65 1019.3
20260502215033 12 309 0.0 1.6 0.00 0.00 0.00 65 1019.3
20260502214545 12 292 0.0 1.6 0.00 0.00 0.00 65 1019.4
20260502214047 13 306 0.0 1.6 0.00 0.00 0.00 65 1019.3
20260502213521 13 323 0.0 1.6 0.00 0.00 0.00 64 1019.3
20260502213033 13 275 1.6 3.2 0.00 0.00 0.00 63 1019.4
20260502212545 13 308 1.6 1.6 0.00 0.00 0.00 62 1019.4
20260502212026 13 291 1.6 3.2 0.00 0.00 0.00 62 1019.5
20260502211537 14 257 0.0 3.2 0.00 0.00 0.00 61 1019.5
20260502211017 14 332 1.6 3.2 0.00 0.00 0.00 61 1019.6
20260502210529 14 280 1.6 8.0 0.00 0.00 0.00 61 1019.7
20260502210041 14 331 1.6 3.2 0.00 0.00 0.00 61 1019.6
20260502205521 14 315 1.6 3.2 0.00 0.00 0.00 61 1019.6
20260502205033 13 266 1.6 3.2 0.00 0.00 0.00 61 1019.6
20260502204545 13 273 1.6 3.2 0.00 0.00 0.00 63 1019.6
20260502204025 12 282 0.0 4.8 0.00 0.00 0.00 68 1019.6
20260502203537 12 307 0.0 1.6 0.00 0.00 0.00 70 1019.7
20260502203017 12 328 0.0 1.6 0.00 0.00 0.00 70 1019.7
20260502202529 12 304 0.0 1.6 0.00 0.00 0.00 70 1019.7
20260502202041 12 315 0.0 1.6 0.00 0.00 0.00 70 1019.6
20260502201521 12 322 0.0 1.6 0.00 0.00 0.00 69 1019.7
20260502201033 12 0.0 0.0 0.00 0.00 0.00 69 1019.6
20260502200546 12 0.0 0.0 0.00 0.00 0.00 69 1019.7
20260502200026 12 311 0.0 1.6 0.00 0.00 0.00 69 1019.7
20260502195537 12 0.0 0.0 0.00 0.00 0.00 68 1019.6
20260502195017 12 0.0 0.0 0.00 0.00 0.00 68 1019.7
20260502194529 12 0.0 0.0 0.00 0.00 0.00 68 1019.7
20260502194042 12 0.0 0.0 0.00 0.00 0.00 67 1019.7
20260502193521 13 0.0 0.0 0.00 0.00 0.00 67 1019.7
20260502193034 13 0.0 0.0 0.00 0.00 0.00 66 1019.9
20260502192545 13 0.0 0.0 0.00 0.00 0.00 65 1019.8
20260502192026 13 0.0 0.0 0.00 0.00 0.00 65 1019.9
20260502191537 13 0.0 0.0 0.00 0.00 0.00 64 1019.9
20260502191018 14 0.0 0.0 0.00 0.00 0.00 63 1019.9
20260502190529 14 318 0.0 1.6 0.00 0.00 0.00 61 1019.9
20260502190041 14 0.0 0.0 0.00 0.00 0.00 61 1019.9
20260502185521 14 329 0.0 1.6 0.00 0.00 0.00 60 1019.8
20260502185033 15 0.0 0.0 0.00 0.00 0.00 59 1019.8
20260502184545 15 0.0 0.0 0.00 0.00 0.00 58 1019.9
20260502184025 15 0.0 0.0 0.00 0.00 0.00 58 1019.9
20260502183521 15 0.0 0.0 0.00 0.00 0.00 56 1020.0
20260502183033 16 0.0 0.0 0.00 0.00 0.00 55 1019.8
20260502182545 16 0.0 0.0 0.00 0.00 0.00 54 1019.8
20260502182025 16 0.0 0.0 0.00 0.00 0.00 52 1019.8
20260502181537 17 0.0 0.0 0.00 0.00 0.00 52 1019.7
20260502181017 17 0.0 0.0 0.00 0.00 0.00 52 1019.7
20260502180529 17 0.0 0.0 0.00 0.00 0.00 51 1019.7
20260502164025 22 81 3.2 9.7 0.00 0.00 0.00 37 1019.8
20260502163538 22 345 1.6 4.8 0.00 0.00 0.00 36 1020.0
20260502163035 22 271 1.6 4.8 0.00 0.00 0.00 37 1020.1
20260502162545 22 331 0.0 1.6 0.00 0.00 0.00 37 1020.0
20260502162026 22 285 1.6 3.2 0.00 0.00 0.00 36 1020.0
20260502161523 22 308 0.0 1.6 0.00 0.00 0.00 36 1020.1
20260502161033 22 313 1.6 3.2 0.00 0.00 0.00 35 1020.1
20260502160545 22 323 1.6 3.2 0.00 0.00 0.00 36 1020.2
20260502152025 23 25 1.6 4.8 0.00 0.00 0.00 34 1020.7
20260502151537 23 278 1.6 8.0 0.00 0.00 0.00 34 1020.7
20260502151017 23 294 1.6 4.8 0.00 0.00 0.00 34 1020.9
20260502150529 23 210 3.2 12.9 0.00 0.00 0.00 34 1020.9
20260502130529 24 192 3.2 9.7 0.00 0.00 0.00 33 1022.2
20260502123521 23 157 3.2 11.3 0.00 0.00 0.00 33 1022.5
20260502123033 23 152 4.8 12.9 0.00 0.00 0.00 33 1022.6
20260502122545 23 279 3.2 4.8 0.00 0.00 0.00 34 1022.7
20260502122026 23 322 4.8 11.3 0.00 0.00 0.00 34 1022.7
20260502121537 23 305 1.6 4.8 0.00 0.00 0.00 33 1022.8
20260502121019 23 223 3.2 8.0 0.00 0.00 0.00 34 1022.9
20260502120529 23 314 4.8 9.7 0.00 0.00 0.00 35 1023.0
20260502115521 24 266 1.6 4.8 0.00 0.00 0.00 34 1023.2
20260502115033 23 278 1.6 4.8 0.00 0.00 0.00 34 1023.2
20260502114545 23 118 4.8 9.7 0.00 0.00 0.00 34 1023.3
20260502114025 23 227 3.2 11.3 0.00 0.00 0.00 35 1023.3
20260502113537 23 311 3.2 9.7 0.00 0.00 0.00 35 1023.5
20260502113018 23 258 3.2 8.0 0.00 0.00 0.00 34 1023.4
20260502112529 23 290 3.2 8.0 0.00 0.00 0.00 34 1023.5
20260502112041 23 320 3.2 8.0 0.00 0.00 0.00 34 1023.6
20260502111521 23 209 3.2 8.0 0.00 0.00 0.00 34 1023.6
20260502111033 23 210 4.8 11.3 0.00 0.00 0.00 34 1023.6
20260502110545 23 201 4.8 11.3 0.00 0.00 0.00 35 1023.7
20260502110025 23 275 3.2 8.0 0.00 0.00 0.00 35 1023.8
20260502105537 23 243 3.2 8.0 0.00 0.00 0.00 36 1023.8
20260502105018 22 166 4.8 8.0 0.00 0.00 0.00 35 1023.9
20260502104530 23 157 4.8 11.3 0.00 0.00 0.00 35 1024.0
20260502104041 23 228 3.2 8.0 0.00 0.00 0.00 35 1024.0
20260502103521 22 72 3.2 8.0 0.00 0.00 0.00 36 1024.0
20260502103033 22 263 4.8 12.9 0.00 0.00 0.00 37 1024.0
20260502102545 22 281 3.2 8.0 0.00 0.00 0.00 37 1024.2
20260502102025 23 310 3.2 8.0 0.00 0.00 0.00 36 1024.3
20260502101537 23 218 3.2 9.7 0.00 0.00 0.00 36 1024.3
20260502101017 22 211 4.8 11.3 0.00 0.00 0.00 37 1024.4
20260502100529 22 321 3.2 9.7 0.00 0.00 0.00 37 1024.4
20260502091522 21 216 4.8 12.9 0.00 0.00 0.00 39 1024.7
20260502091033 21 203 6.4 12.9 0.00 0.00 0.00 39 1024.8
20260502090545 21 185 4.8 11.3 0.00 0.00 0.00 40 1024.7
20260502071522 18 274 3.2 4.8 0.00 0.00 0.00 52 1025.3
20260502071034 17 284 3.2 4.8 0.00 0.00 0.00 52 1025.2
20260502070545 17 214 3.2 8.0 0.00 0.00 0.00 52 1025.2
20260502070025 17 320 1.6 3.2 0.00 0.00 0.00 55 1025.3
20260502065537 16 293 1.6 3.2 0.00 0.00 0.00 57 1025.3
20260502065017 16 285 1.6 4.8 0.00 0.00 0.00 57 1025.3
20260502064529 16 195 3.2 9.7 0.00 0.00 0.00 57 1025.4
20260502064042 16 77 1.6 4.8 0.00 0.00 0.00 57 1025.3
20260502063540 15 258 1.6 4.8 0.00 0.00 0.00 58 1025.4
20260502063035 15 223 3.2 8.0 0.00 0.00 0.00 58 1025.3
20260502062546 15 274 3.2 8.0 0.00 0.00 0.00 58 1025.3
20260502062026 15 206 3.2 8.0 0.00 0.00 0.00 59 1025.4
20260502061538 15 185 3.2 8.0 0.00 0.00 0.00 59 1025.5
20260502061018 14 222 3.2 4.8 0.00 0.00 0.00 60 1025.3
20260502060529 14 228 1.6 4.8 0.00 0.00 0.00 60 1025.4
20260502060041 13 216 3.2 8.0 0.00 0.00 0.00 61 1025.3